Location: Namasale
(1.5000°N, 32.6167°E)
Time: 17:53:31
(UTC+00:00)

Courier 1B - Pass Details

Date: 25 April 2021
Orbit: 962 x 1209 km, 28.3° (Epoch: 18 May)

Event Time Altitude Azimuth Distance (km) Brightness Sun altitude
Rises 18:46:33 0° 258° (WSW) 3,732 11.2 -42.7°
Reaches altitude 10° 18:50:34 10° 236° (SW) 2,831 10.2 -43.7°
Enters shadow 18:51:09 11° 231° (SW) 2,743 10.1 -43.8°
Maximum altitude 18:54:16 15° 203° (SSW) 2,531 - -44.6°
Drops below altitude 10° 18:58:05 10° 170° (S) 2,931 - -45.4°
Sets 19:02:24 0° 148° (SSE) 3,947 - -46.4°
